DW8343 Weather Reports


Display with metric or nautical units.
time (UTC)temp
F
wind
direction
speed
MPH
gust
MPH
rain 1hr
in
rain 24hr
in
rain mn
in
humidity
%
barometer
mb
20260505050442 74 226 4.0 14.0 0.00 0.00 0.00 72 1002.6
20260505041410 74 318 4.0 6.0 0.00 0.00 0.00 71 1003.0
20260505040907 75 175 3.0 7.0 0.00 0.00 0.00 71 1003.1
20260505040405 75 68 3.0 11.0 0.00 0.00 0.00 70 1003.2
20260505035901 75 242 4.0 9.0 0.00 0.00 0.00 70 1003.1
20260505035357 75 108 4.0 13.0 0.00 0.00 0.00 70 1003.1
20260505034854 75 246 2.0 4.0 0.00 0.00 0.00 70 1003.1
20260505034351 75 347 2.0 8.0 0.00 0.00 0.00 69 1002.9
20260505033848 75 242 1.0 8.0 0.00 0.00 0.00 69 1003.0
20260505033345 75 258 4.0 10.0 0.00 0.00 0.00 69 1002.7
20260505032843 75 270 4.0 9.0 0.00 0.00 0.00 69 1002.8
20260505032339 76 242 2.0 10.0 0.00 0.00 0.00 69 1002.7
20260505031836 76 190 3.0 6.0 0.00 0.00 0.00 68 1002.7
20260505031333 76 308 2.0 7.0 0.00 0.00 0.00 68 1002.6
20260505030830 76 264 4.0 11.0 0.00 0.00 0.00 68 1002.8
20260505030326 76 180 2.0 8.0 0.00 0.00 0.00 68 1002.7
20260505025822 76 122 3.0 11.0 0.00 0.00 0.00 67 1002.8
20260505025320 76 91 4.0 8.0 0.00 0.00 0.00 67 1002.6
20260505024818 76 287 7.0 9.0 0.00 0.00 0.00 67 1002.6
20260505024315 76 280 3.0 6.0 0.00 0.00 0.00 66 1002.2
20260505023812 76 239 4.0 13.0 0.00 0.00 0.00 66 1002.5
20260505023309 76 265 4.0 14.0 0.00 0.00 0.00 66 1002.5
20260505022806 76 197 4.0 9.0 0.00 0.00 0.00 66 1002.4
20260505022304 77 66 5.0 9.0 0.00 0.00 0.00 66 1002.4
20260505021800 77 288 7.0 13.0 0.00 0.00 0.00 66 1002.3
20260505021257 77 77 3.0 6.0 0.00 0.00 0.00 66 1002.1
20260505020753 77 259 3.0 9.0 0.00 0.00 0.00 65 1002.3
20260505020248 77 49 2.0 6.0 0.00 0.00 0.00 65 1002.2
20260505015746 77 207 2.0 7.0 0.00 0.00 0.00 64 1002.3
20260505015242 78 298 5.0 8.0 0.00 0.00 0.00 64 1002.5
20260505014739 78 47 3.0 14.0 0.00 0.00 0.00 63 1002.3
20260505014237 78 227 5.0 7.0 0.00 0.00 0.00 63 1002.3
20260505013733 78 260 8.0 17.0 0.00 0.00 0.00 62 1002.6
20260505013230 78 106 1.0 8.0 0.00 0.00 0.00 62 1002.4
20260505012729 78 214 3.0 7.0 0.00 0.00 0.00 62 1002.2
20260505012225 78 224 5.0 10.0 0.00 0.00 0.00 62 1002.3
20260505011721 78 246 6.0 8.0 0.00 0.00 0.00 62 1002.3
20260505011219 78 101 2.0 10.0 0.00 0.00 0.00 62 1002.4
20260505010714 78 134 2.0 6.0 0.00 0.00 0.00 62 1002.5
20260505010211 79 219 4.0 8.0 0.00 0.00 0.00 61 1002.6
20260505005707 79 274 1.0 9.0 0.00 0.00 0.00 61 1002.6
20260505005204 79 250 2.0 7.0 0.00 0.00 0.00 61 1002.8
20260505004701 79 249 4.0 9.0 0.00 0.00 0.00 60 1002.6
20260505004158 79 54 3.0 6.0 0.00 0.00 0.00 60 1002.5
20260505003655 80 235 3.0 13.0 0.00 0.00 0.00 59 1002.8
20260505003153 80 38 2.0 11.0 0.00 0.00 0.00 59 1002.6
20260505002649 80 41 2.0 8.0 0.00 0.00 0.00 59 1002.8
20260505002147 80 123 2.0 6.0 0.00 0.00 0.00 58 1002.8
20260505001643 80 139 4.0 10.0 0.00 0.00 0.00 58 1002.9
20260505001141 80 331 1.0 6.0 0.00 0.00 0.00 58 1003.0
20260505000638 80 137 3.0 11.0 0.00 0.00 0.00 57 1003.0
20260505000136 80 358 4.0 9.0 0.00 0.00 0.00 57 1002.9
20260504235632 80 350 2.0 7.0 0.00 0.00 0.00 57 1002.9
20260504235129 81 290 6.0 13.0 0.00 0.00 0.00 57 1003.0
20260504234626 81 128 4.0 9.0 0.00 0.00 0.00 57 1003.3
20260504234123 81 326 5.0 9.0 0.00 0.00 0.00 57 1003.2
20260504233619 81 200 4.0 10.0 0.00 0.00 0.00 56 1003.2
20260504233115 81 196 3.0 7.0 0.00 0.00 0.00 56 1003.3
20260504232613 81 55 2.0 16.0 0.00 0.00 0.00 57 1003.3
20260504232110 81 249 4.0 6.0 0.00 0.00 0.00 56 1003.4
20260504231606 81 241 4.0 11.0 0.00 0.00 0.00 56 1003.8
20260504231102 82 108 2.0 8.0 0.00 0.00 0.00 56 1003.9
20260504230558 82 294 2.0 9.0 0.00 0.00 0.00 55 1003.5
20260504230053 81 262 3.0 10.0 0.00 0.00 0.00 55 1003.8
20260504225550 81 156 4.0 7.0 0.00 0.00 0.00 55 1003.8
20260504225046 81 245 4.0 6.0 0.00 0.00 0.00 55 1003.8
20260504224543 81 213 2.0 4.0 0.00 0.00 0.00 55 1003.9
20260504224040 81 147 4.0 6.0 0.00 0.00 0.00 55 1003.8
20260504223537 82 311 3.0 11.0 0.00 0.00 0.00 55 1004.0
20260504223033 82 78 1.0 2.0 0.00 0.00 0.00 54 1004.0
20260504222530 81 275 2.0 4.0 0.00 0.00 0.00 54 1003.9
20260504222027 81 302 4.0 9.0 0.00 0.00 0.00 54 1003.9
20260504221524 81 104 4.0 9.0 0.00 0.00 0.00 54 1004.1
20260504221021 81 193 2.0 6.0 0.00 0.00 0.00 53 1004.1
20260504220518 81 129 3.0 6.0 0.00 0.00 0.00 54 1004.1
20260504220015 81 263 4.0 7.0 0.00 0.00 0.00 54 1004.3
20260504215511 81 203 3.0 6.0 0.00 0.00 0.00 53 1004.1
20260504215009 81 241 3.0 10.0 0.00 0.00 0.00 53 1004.3
20260504214504 81 197 4.0 9.0 0.00 0.00 0.00 53 1004.6
20260504214001 81 215 11.0 13.0 0.00 0.00 0.00 52 1004.4
20260504213456 81 229 2.0 10.0 0.00 0.00 0.00 53 1004.6
20260504212955 82 283 2.0 7.0 0.00 0.00 0.00 51 1004.7
20260504212450 81 343 3.0 10.0 0.00 0.00 0.00 52 1004.6
20260504211948 81 76 2.0 10.0 0.00 0.00 0.00 52 1004.8
20260504211444 81 273 4.0 8.0 0.00 0.00 0.00 52 1004.9
20260504210942 81 189 6.0 16.0 0.00 0.00 0.00 51 1004.9
20260504210438 82 334 4.0 9.0 0.00 0.00 0.00 50 1004.9
20260504205936 82 200 2.0 8.0 0.00 0.00 0.00 49 1005.0
20260504205433 82 177 3.0 7.0 0.00 0.00 0.00 49 1005.1
20260504204931 83 211 2.0 8.0 0.00 0.00 0.00 49 1005.1
20260504204429 82 277 3.0 7.0 0.00 0.00 0.00 50 1005.1
20260504203928 82 278 6.0 10.0 0.00 0.00 0.00 49 1005.3
20260504203426 83 290 4.0 9.0 0.00 0.00 0.00 48 1005.4
20260504202921 83 19 3.0 8.0 0.00 0.00 0.00 49 1005.3
20260504202418 83 134 2.0 8.0 0.00 0.00 0.00 49 1005.5
20260504201915 82 167 5.0 7.0 0.00 0.00 0.00 48 1005.6
20260504201412 83 232 4.0 13.0 0.00 0.00 0.00 48 1005.6
20260504200910 84 142 4.0 9.0 0.00 0.00 0.00 46 1005.4
20260504200406 82 35 2.0 8.0 0.00 0.00 0.00 47 1005.7
20260504195903 82 136 4.0 7.0 0.00 0.00 0.00 48 1005.9
20260504195358 83 32 5.0 7.0 0.00 0.00 0.00 47 1005.9
20260504194855 82 274 9.0 13.0 0.00 0.00 0.00 47 1005.9
20260504194351 81 296 6.0 9.0 0.00 0.00 0.00 48 1006.2
20260504193847 82 206 2.0 13.0 0.00 0.00 0.00 49 1006.2
20260504193344 82 281 4.0 10.0 0.00 0.00 0.00 48 1006.3
20260504192843 81 2 3.0 6.0 0.00 0.00 0.00 49 1006.4
20260504192340 83 175 4.0 10.0 0.00 0.00 0.00 48 1006.5
20260504191839 82 282 3.0 8.0 0.00 0.00 0.00 48 1006.4
20260504191337 82 254 4.0 14.0 0.00 0.00 0.00 47 1006.4
20260504190832 80 285 2.0 10.0 0.00 0.00 0.00 50 1006.3
20260504190328 81 177 5.0 10.0 0.00 0.00 0.00 48 1006.6
20260504185825 81 195 2.0 8.0 0.00 0.00 0.00 49 1006.6
20260504185322 80 175 3.0 13.0 0.00 0.00 0.00 48 1006.9
20260504184818 80 303 4.0 11.0 0.00 0.00 0.00 49 1006.8
20260504184314 80 40 2.0 7.0 0.00 0.00 0.00 49 1007.1
20260504183809 79 247 4.0 8.0 0.00 0.00 0.00 49 1007.1
20260504183307 79 256 7.0 8.0 0.00 0.00 0.00 49 1007.2
20260504182805 79 175 2.0 8.0 0.00 0.00 0.00 49 1007.3
20260504182304 79 259 4.0 9.0 0.00 0.00 0.00 49 1007.3
20260504181759 80 50 2.0 8.0 0.00 0.00 0.00 49 1007.4
20260504181256 79 115 4.0 10.0 0.00 0.00 0.00 49 1007.2
20260504180755 79 228 6.0 10.0 0.00 0.00 0.00 48 1007.4
20260504180254 79 347 6.0 10.0 0.00 0.00 0.00 48 1007.4
20260504175751 78 332 4.0 8.0 0.00 0.00 0.00 49 1007.6
20260504175248 79 243 2.0 13.0 0.00 0.00 0.00 48 1007.7
20260504174745 79 38 3.0 11.0 0.00 0.00 0.00 48 1007.8
20260504174243 79 246 4.0 10.0 0.00 0.00 0.00 49 1008.0
20260504173739 79 97 6.0 11.0 0.00 0.00 0.00 47 1007.8
20260504173237 78 202 6.0 14.0 0.00 0.00 0.00 48 1008.1
20260504172733 79 250 4.0 9.0 0.00 0.00 0.00 47 1008.1
20260504172230 78 303 6.0 13.0 0.00 0.00 0.00 49 1007.9
20260504171726 78 336 4.0 9.0 0.00 0.00 0.00 48 1008.0
20260504171223 78 129 2.0 10.0 0.00 0.00 0.00 49 1008.2
20260504170720 78 172 4.0 6.0 0.00 0.00 0.00 48 1008.0
20260504170217 77 260 5.0 8.0 0.00 0.00 0.00 49 1008.1
20260504160136 75 108 6.0 13.0 0.00 0.00 0.00 49 1008.3
20260504151103 72 228 4.0 7.0 0.00 0.00 0.00 51 1008.7
20260504150601 72 275 3.0 9.0 0.00 0.00 0.00 52 1008.8
20260504141026 69 304 4.0 6.0 0.00 0.00 0.00 55 1009.2
20260504140523 69 299 5.0 8.0 0.00 0.00 0.00 55 1009.2
20260504130447 65 216 3.0 8.0 0.00 0.00 0.00 59 1009.4
20260504110334 64 263 1.0 6.0 0.00 0.00 0.00 58 1009.6
20260504100246 65 294 3.0 7.0 0.00 0.00 0.00 52 1010.1
20260504081639 67 230 3.0 7.0 0.00 0.00 0.00 47 1011.0
20260504081135 68 221 3.0 10.0 0.00 0.00 0.00 47 1011.0
20260504080632 68 221 3.0 10.0 0.00 0.00 0.00 47 1011.0
20260504080128 68 263 2.0 6.0 0.00 0.00 0.00 47 1011.0